Location: Ladd Observatory
(41.8387°N, 71.3996°W)
Time: 09:29:26
(UTC-05:00)

ISS - Visible Passes

Search period start: 20 December 2014 00:00
Search period end: 30 December 2014 00:00
Orbit: 404 x 415 km, 51.6° (Epoch: 20 December)

Date Brightness Start Highest point End Pass type
(mag) Time Alt. Az. Time Alt. Az. Time Alt. Az.
20 Dec -1.3 17:10:09 10° NNW 17:12:14 16° N 17:13:47 12° NE visible
20 Dec -0.2 18:46:28 10° NW 18:46:32 10° NW 18:46:32 10° NW visible
21 Dec -1.7 17:55:49 10° NW 17:57:58 23° N 17:57:58 23° N visible
22 Dec -1.6 17:05:06 10° NW 17:07:35 19° NNE 17:09:27 13° NE visible
22 Dec -0.7 18:41:18 10° NW 18:42:14 17° NW 18:42:14 17° NW visible
23 Dec -3.0 17:50:30 10° NW 17:53:40 44° NNE 17:53:49 43° NE visible
24 Dec -2.3 16:59:42 10° NW 17:02:38 29° NNE 17:05:33 10° E visible
24 Dec -1.5 18:36:09 10° WNW 18:38:20 32° W 18:38:20 32° W visible
25 Dec -3.3 17:45:05 10° WNW 17:48:22 81° SW 17:50:19 22° SE visible
26 Dec -3.2 16:54:05 10° NW 16:57:20 57° NNE 17:00:34 10° ESE visible
26 Dec -0.5 18:31:23 10° W 18:33:36 17° SW 18:35:28 12° S visible
27 Dec -1.4 17:39:46 10° WNW 17:42:42 31° SW 17:45:38 10° SSE visible
28 Dec -2.6 16:48:26 10° WNW 16:51:41 59° SW 16:54:54 10° SE visible
29 Dec 0.1 17:35:09 10° WSW 17:36:40 13° SW 17:38:11 10° SSW visible
